Regional Weather Roundup
Issued by NWS Nashville, TN

Home | Current Version | Previous Version | Text Only | Print | Product List | Glossary On
Versions: 1 2 3 4 5 6 7 8 9 10 11 12 13 14 15 16 17 18 19 20 21 22 23 24 25 26
000
ASUS44 KOHX 262310
RWROHX
MIDDLE TENNESSEE HOURLY WEATHER ROUNDUP
NATIONAL WEATHER SERVICE NASHVILLE TN
600 PM CDT THU MAY 26 2016

NOTE: "FAIR" INDICATES FEW OR NO CLOUDS BELOW 12,000 FEET WITH
NO SIGNIFICANT WEATHER AND/OR OBSTRUCTIONS TO VISIBILITY.

* THESE REPORTS ARE NOT UNDER NWS QUALITY CONTROL AND MAY NOT
  REPORT WEATHER SUCH AS PRECIPITATION AND FOG.


TNZ005>011-023>034-057-059-062>066-078-080-270000
...NORTHERN MIDDLE TENNESSEE...

CITY           SKY/WX    TMP DP  RH WIND       PRES   REMARKS
CLARKSVILLE    LGT RAIN  68  64  87 E7        30.06F
CROSSVILLE     SUNNY     78  62  57 S3        30.12S
DICKSON        CLOUDY    66  64  94 N12       30.10R
LEBANON        CLOUDY    71  63  76 NE9       30.05F
NASHVILLE      CLOUDY    73  63  70 NE15      30.05R
SMYRNA         CLOUDY    74  64  70 NE13      30.06R
SPARTA         PTSUNNY   75  64  69 NE13      30.09R
$$
TNZ056-058-060-061-075>077-079-093>097-270000
...SOUTHERN MIDDLE TENNESSEE...

CITY           SKY/WX    TMP DP  RH WIND       PRES   REMARKS
COLUMBIA       SUNNY     84  64  51 SE5       30.00R
FAYETTEVILLE   MOSUNNY   86  63  45 SE12      30.03F
LEWISBURG      CLOUDY    88  60  38 S12       30.01S
MCMINNVILLE    MOSUNNY   86  64  48 CALM      30.05S
SHELBYVILLE    MOSUNNY   88  63  42 S10       30.04S
TULLAHOMA      SUNNY     82  59  44 SW5       30.06S
WINCHESTER     SUNNY     88  63  42 S7        30.05S
$$


...KEY TO REMARKS...
VSB - VISIBILITY IN MILES
WCI - WIND CHILL INDEX
HX  - HEAT INDEX





USA.gov is the U.S. government's official web portal to all federal, state and local government web resources and services.